Weather History for KS32 - November, 2012

Change the Weather History Date:

Friday, November 16, 2012

  Actual Average (KJMS) Record (KJMS)
Temperature  
Mean Temperature 29 °F 27 °F  
Max Temperature 39 °F 37 °F 70 °F (1905)
Min Temperature 19 °F 18 °F -9 °F (1959)
Degree Days  
Heating Degree Days 36 38  
Month to date heating degree days 530  
Since 1 July heating degree days 1497  
Cooling Degree Days 0 0  
Month to date cooling degree days 0  
Year to date cooling degree days 446  
Moisture  
Dew Point 23 °F    
Average Humidity 81    
Maximum Humidity 100    
Minimum Humidity 60    
Precipitation  
Precipitation 0.00 in 0.02 in 0.40 in (1958)
Month to date precipitation 0.39  
Year to date precipitation 18.13  
Sea Level Pressure  
Sea Level Pressure 30.18 in    
Wind  
Wind Speed 14 mph (South)    
Max Wind Speed 28 mph    
Max Gust Speed 34 mph    
Visibility 10 miles    
Events      
T = Trace of Precipitation, MM = Missing Value Source: NWS Daily Summary

Daily Weather History Graph

Daily Weather History Graph

Search for Another Location

Airport or City:

Trip Planner

Search our weather history database for the weather conditions in past years. The results will help you decide how hot, cold, wet, or windy it might be!

Date:

Astronomy

Nov. 16, 2012 Rise Set
Actual Time 7:39 AM CST 4:54 PM CST
Civil Twilight 7:05 AM CST 5:28 PM CST
Nautical Twilight 6:28 AM CST 6:05 PM CST
Astronomical Twilight 5:51 AM CST 6:42 PM CST
Moon 10:38 AM CST (11/16) 7:53 PM CST (11/16)
Length of Visible Light 10h 22m
Length of Day
9h 15m
Waxing Crescent, 12% of the Moon is Illuminated
Nov 16
Waxing Crescent
Nov 20
First Quarter
Nov 28
Full
Dec 6
Last Quarter
Dec 13
New

Hourly Weather History & Observations

Time (CST) Temp. Windchill Dew Point Humidity Pressure Visibility Wind Dir Wind Speed Gust Speed Precip Events Conditions
12:15 AM 21.2 °F 10.1 °F 19.4 °F 93% 30.38 in 10.0 mi South 10.4 mph - N/A   Clear
12:35 AM 21.2 °F 11.7 °F 19.4 °F 93% 30.38 in 10.0 mi South 8.1 mph - N/A   Clear
12:55 AM 21.2 °F 9.5 °F 19.4 °F 93% 30.38 in 10.0 mi South 11.5 mph - N/A   Clear
1:15 AM 21.2 °F 10.1 °F 19.4 °F 93% 30.37 in 10.0 mi South 10.4 mph - N/A   Clear
1:35 AM 21.2 °F 10.9 °F 19.4 °F 93% 30.36 in 10.0 mi South 9.2 mph - N/A   Clear
1:55 AM 23.0 °F 11.1 °F 19.4 °F 86% 30.36 in 10.0 mi South 12.7 mph - N/A   Clear
2:15 AM 21.2 °F 10.1 °F 19.4 °F 93% 30.35 in 10.0 mi South 10.4 mph - N/A   Clear
2:35 AM 21.2 °F 10.9 °F 19.4 °F 93% 30.35 in 10.0 mi South 9.2 mph - N/A   Clear
2:55 AM 21.2 °F 9.5 °F 19.4 °F 93% 30.34 in 10.0 mi South 11.5 mph - N/A   Clear
3:15 AM 19.4 °F 7.2 °F 19.4 °F 100% 30.33 in 10.0 mi South 11.5 mph - N/A   Clear
3:35 AM 19.4 °F 7.2 °F 19.4 °F 100% 30.32 in 10.0 mi South 11.5 mph - N/A   Clear
3:55 AM 21.2 °F 9.5 °F 19.4 °F 93% 30.31 in 10.0 mi South 11.5 mph - N/A   Clear
4:15 AM 21.2 °F 10.1 °F 19.4 °F 93% 30.31 in 10.0 mi South 10.4 mph - N/A   Clear
4:35 AM 21.2 °F 9.5 °F 19.4 °F 93% 30.30 in 10.0 mi South 11.5 mph - N/A   Clear
4:55 AM 23.0 °F 11.1 °F 19.4 °F 86% 30.29 in 10.0 mi South 12.7 mph - N/A   Clear
5:15 AM 21.2 °F 9.5 °F 19.4 °F 93% 30.29 in 10.0 mi South 11.5 mph - N/A   Clear
5:35 AM 21.2 °F 9.5 °F 19.4 °F 93% 30.28 in 10.0 mi SSE 11.5 mph - N/A   Clear
5:55 AM 21.2 °F 8.9 °F 19.4 °F 93% 30.28 in 10.0 mi SSE 12.7 mph - N/A   Clear
6:15 AM 21.2 °F 8.9 °F 19.4 °F 93% 30.28 in 10.0 mi South 12.7 mph - N/A   Clear
6:35 AM 21.2 °F 9.5 °F 19.4 °F 93% 30.28 in 10.0 mi South 11.5 mph - N/A   Clear
6:55 AM 21.2 °F 9.5 °F 19.4 °F 93% 30.28 in 10.0 mi South 11.5 mph - N/A   Clear
7:15 AM 21.2 °F 8.3 °F 19.4 °F 93% 30.27 in 10.0 mi South 13.8 mph - N/A   Clear
7:35 AM 21.2 °F 8.3 °F 19.4 °F 93% 30.27 in 10.0 mi South 13.8 mph - N/A   Clear
7:55 AM 21.2 °F 8.3 °F 19.4 °F 93% 30.26 in 10.0 mi South 13.8 mph - N/A   Clear
8:15 AM 23.0 °F 10.1 °F 19.4 °F 86% 30.26 in 10.0 mi South 15.0 mph - N/A   Clear
8:35 AM 23.0 °F 9.2 °F 19.4 °F 86% 30.27 in 10.0 mi South 17.3 mph - N/A   Clear
8:55 AM 24.8 °F 11.9 °F 19.4 °F 80% 30.26 in 10.0 mi South 16.1 mph - N/A   Clear
9:15 AM 26.6 °F 13.8 °F 19.4 °F 74% 30.25 in 10.0 mi South 17.3 mph - N/A   Clear
9:35 AM 26.6 °F 13.4 °F 19.4 °F 74% 30.25 in 10.0 mi South 18.4 mph 23.0 mph N/A   Clear
9:55 AM 28.4 °F 15.4 °F 17.6 °F 64% 30.24 in 10.0 mi South 19.6 mph 25.3 mph N/A   Clear
10:15 AM 30.2 °F 17.8 °F 19.4 °F 64% 30.24 in 10.0 mi South 19.6 mph 25.3 mph N/A   Clear
10:35 AM 32.0 °F 19.8 °F 19.4 °F 60% 30.23 in 10.0 mi South 20.7 mph 25.3 mph N/A   Clear
10:55 AM 32.0 °F 20.1 °F 23.0 °F 69% 30.22 in 10.0 mi South 19.6 mph 23.0 mph N/A   Clear
11:15 AM 32.0 °F 19.2 °F 24.8 °F 75% 30.20 in 10.0 mi SSE 23.0 mph 31.1 mph N/A   Clear
11:35 AM 33.8 °F 21.0 °F 24.8 °F 70% 30.18 in 10.0 mi South 25.3 mph 29.9 mph N/A   Clear
11:55 AM 35.6 °F 23.0 °F 24.8 °F 65% 30.17 in 10.0 mi South 27.6 mph 31.1 mph N/A   Clear
12:15 PM 35.6 °F 23.4 °F 24.8 °F 65% 30.15 in 10.0 mi South 25.3 mph 34.5 mph N/A   Clear
12:35 PM 37.4 °F 26.1 °F 24.8 °F 60% 30.14 in 10.0 mi South 24.2 mph 28.8 mph N/A   Clear
12:55 PM 37.4 °F 25.9 °F 26.6 °F 65% 30.12 in 10.0 mi South 25.3 mph 33.4 mph N/A   Clear
1:15 PM 37.4 °F 26.4 °F 26.6 °F 65% 30.12 in 10.0 mi South 23.0 mph 31.1 mph N/A   Clear
1:35 PM 37.4 °F 25.9 °F 26.6 °F 65% 30.10 in 10.0 mi South 25.3 mph 31.1 mph N/A   Clear
1:55 PM 37.4 °F 25.4 °F 26.6 °F 65% 30.08 in 10.0 mi SSE 27.6 mph 33.4 mph N/A   Clear
2:15 PM 37.4 °F 26.9 °F 28.4 °F 70% 30.08 in 10.0 mi SSE 20.7 mph 29.9 mph N/A   Clear
2:35 PM 37.4 °F 26.1 °F 28.4 °F 70% 30.06 in 10.0 mi SSE 24.2 mph 31.1 mph N/A   Clear
2:55 PM 37.4 °F 26.6 °F 26.6 °F 65% 30.07 in 10.0 mi SSE 21.9 mph - N/A   Clear
3:15 PM 39.2 °F 28.7 °F 26.6 °F 61% 30.06 in 10.0 mi South 23.0 mph 31.1 mph N/A   Clear
3:35 PM 39.2 °F 29.3 °F 26.6 °F 61% 30.07 in 10.0 mi South 20.7 mph - N/A   Clear
3:55 PM 39.2 °F 30.2 °F 28.4 °F 65% 30.07 in 10.0 mi South 17.3 mph 20.7 mph N/A   Clear
4:15 PM 37.4 °F 26.9 °F 28.4 °F 70% 30.06 in 10.0 mi South 20.7 mph 24.2 mph N/A   Clear
4:35 PM 37.4 °F 28.5 °F 28.4 °F 70% 30.07 in 10.0 mi South 15.0 mph - N/A   Clear
4:55 PM 35.6 °F 25.9 °F 28.4 °F 75% 30.06 in 10.0 mi South 16.1 mph - N/A   Clear
5:15 PM 35.6 °F 25.5 °F 26.6 °F 70% 30.06 in 10.0 mi SSE 17.3 mph - N/A   Clear
5:35 PM 35.6 °F 26.2 °F 26.6 °F 70% 30.07 in 10.0 mi South 15.0 mph - N/A   Clear
5:55 PM 33.8 °F 24.3 °F 26.6 °F 75% 30.06 in 10.0 mi SSE 13.8 mph - N/A   Clear
6:15 PM 32.0 °F 22.5 °F 26.6 °F 80% 30.06 in 10.0 mi SSE 12.7 mph - N/A   Clear
6:35 PM 32.0 °F 22.5 °F 26.6 °F 80% 30.06 in 10.0 mi SSE 12.7 mph - N/A   Clear
6:55 PM 32.0 °F 22.1 °F 26.6 °F 80% 30.05 in 10.0 mi SSE 13.8 mph - N/A   Clear
7:15 PM 32.0 °F 22.1 °F 26.6 °F 80% 30.04 in 10.0 mi SSE 13.8 mph - N/A   Clear
7:55 PM 32.0 °F 22.1 °F 26.6 °F 80% 30.04 in 10.0 mi SSE 13.8 mph - N/A   Clear
8:15 PM 32.0 °F 21.6 °F 26.6 °F 80% 30.03 in 10.0 mi SSE 15.0 mph - N/A   Clear
8:35 PM 32.0 °F 21.6 °F 26.6 °F 80% 30.03 in 10.0 mi SSE 15.0 mph - N/A   Clear
8:55 PM 32.0 °F 23.0 °F 26.6 °F 80% 30.03 in 10.0 mi SSE 11.5 mph - N/A   Clear
9:15 PM 32.0 °F 23.6 °F 26.6 °F 80% 30.02 in 10.0 mi SSE 10.4 mph - N/A   Clear
9:55 PM 32.0 °F 22.5 °F 26.6 °F 80% 30.01 in 10.0 mi SSE 12.7 mph - N/A   Clear
10:15 PM 32.0 °F 21.6 °F 28.4 °F 87% 30.00 in 10.0 mi SSE 15.0 mph - N/A   Clear
10:35 PM 32.0 °F 21.6 °F 28.4 °F 87% 30.00 in 10.0 mi South 15.0 mph - N/A   Clear
10:55 PM 32.0 °F 23.0 °F 28.4 °F 87% 30.01 in 10.0 mi South 11.5 mph - N/A   Clear
11:15 PM 30.2 °F 21.3 °F 28.4 °F 93% 30.01 in 10.0 mi South 10.4 mph - N/A   Clear
11:35 PM 30.2 °F 21.9 °F 28.4 °F 93% 30.01 in 10.0 mi South 9.2 mph - N/A   Clear
11:55 PM 28.4 °F 19.7 °F 28.4 °F 100% 30.01 in 10.0 mi SSE 9.2 mph - N/A   Clear